Location: Sihaung
(22.8641°N, 94.0549°E)
Time: 13:44:19
(UTC+00:00)

Cosmos 1500 Rocket - Pass Details

Date: 03 March 2021
Orbit: 604 x 630 km, 82.5° (Epoch: 11 April)

Event Time Altitude Azimuth Distance (km) Brightness Sun altitude
Rises 22:55:41 0° 342° (NNW) 2,869 6.8 -16.3°
Reaches altitude 10° 22:58:02 10° 334° (NNW) 1,966 5.9 -15.7°
Maximum altitude 23:01:59 35° 268° (W) 995 4.1 -14.8°
Drops below altitude 10° 23:05:58 10° 203° (SSW) 1,974 5.9 -13.9°
Sets 23:08:20 0° 194° (SSW) 2,882 6.9 -13.4°
